Hourly Data Report for July 03, 2009

PITT MEADOWS CS
BRITISH COLUMBIA

49°12'29.964" N
122°41'24.076" W
5.00 m
1106178
71775
WMM

Download Data

Hourly Data (July 2009)
Hourly Data Report for July 3, 2009
TIME
LST
Temp Definition
°C
Dew Point Definition
°C
Rel Hum Definition
%
Precip. Amount Definition
mm

Wind Dir Definition
10's deg

Wind Spd Definition
km/h
Visibility Definition
km
Stn Press Definition
kPa
Hmdx Definition


Wind Chill Definition


Weather Definition


00:00 14.1 11.0 82   9 2   101.26     LegendNANA
01:00 14.1 11.0 82   13 4   101.27     LegendNANA
02:00 12.2 10.6 90     0   101.30     LegendNANA
03:00 11.9 10.3 90     0   101.32     LegendNANA
04:00 11.1 9.6 90     0   101.34     LegendNANA
05:00 11.3 10.3 94     0   101.35     LegendNANA
06:00 14.7 12.0 84   8 2   101.38     LegendNANA
07:00 17.4 12.1 71   22 2   101.40     LegendNANA
08:00 19.6 10.8 57   19 2   101.40     LegendNANA
09:00 22.2 11.4 50   26 4   101.39     LegendNANA
10:00 24.8 10.4 40   26 7   101.36 26   LegendNANA
11:00 26.6 11.0 38   25 11   101.34 28   LegendNANA
12:00 28.6 10.2 32   27 13   101.32 30   LegendNANA
13:00 28.7 8.5 28   27 11   101.30 29   LegendNANA
14:00 30.0 8.9 27   27 11   101.28 31   LegendNANA
15:00 30.3 8.0 25   27 7   101.23 31   LegendNANA
16:00 30.2 5.5 21   22 7   101.18 30   LegendNANA
17:00 29.9 6.1 22   23 7   101.16 30   LegendNANA
18:00 26.3 11.9 41   19 9   101.15 29   LegendNANA
19:00 24.4 10.7 42   20 7   101.17 26   LegendNANA
20:00 22.7 8.0 39   19 7   101.18     LegendNANA
21:00 19.0 9.7 55   9 2   101.23     LegendNANA
22:00 16.4 10.7 69   9 2   101.26     LegendNANA
23:00 15.4 10.8 74     0   101.29     LegendNANA

Notes on Data Quality.

Legend

  • E = Estimated
  • M = Missing
  • NA = Not Available*
  • [empty] = Indicates an unobserved value
Date modified: